Location: *
(32.8140°S, 174.6161°E)
Time: 23:42:22
(UTC+00:00)

CZ-4C R/B - Pass Details

Date: 10 December 2019
Orbit: 410 x 493 km, 97.6° (Epoch: 22 January)

Event Time Altitude Azimuth Distance (km) Brightness Sun altitude
Rises 15:42:56 0° 167° (SSE) 2,610 7.7 -15.3°
Reaches altitude 10° 15:45:02 10° 164° (SSE) 1,720 6.7 -15.0°
Maximum altitude 15:48:45 74° 79° (ENE) 524 3.2 -14.4°
Enters shadow 15:51:42 15° 354° (N) 1,403 5.0 -13.9°
